DW1298 Barcelona ES current weather conditions

sailwx.info

Wind from 066

Air temperature 22.8° C
Dewpoint 20.7° C

Last reported at 2019-Sep-16 22:00 UTC.
Time now 2019-Sep-16 22:26 UTC

Location: N 41°23' E 002°12'.
View on Google Maps.

See reports from other nearby stations

  
Tides and Currents Weather Stations Pressure Air Temp Water Temp Dewpoint Dewpoint Depression Visibility Wind Speed Wind Dir Waves Ship Positions
date/time (UTC)wind fromknots sea level pressurealtimeterstation pressurevisibilityair tempwater tempwave heightnotes
2019-Sep-16 22:05 066 22.8
2019-Sep-16 22:00 066 22.8
2019-Sep-16 21:50 066 22.8
2019-Sep-16 21:45 066 22.8
2019-Sep-16 21:40 066 22.8
2019-Sep-16 21:35 063 22.8
2019-Sep-16 21:30 063 22.8
2019-Sep-16 21:25 063 22.8
2019-Sep-16 21:20 063 23.3
2019-Sep-16 21:15 063 23.3
2019-Sep-16 21:10 063 23.3
2019-Sep-16 21:05 063 23.3
2019-Sep-16 21:00 063 23.3
2019-Sep-16 20:55 063 23.3
2019-Sep-16 20:50 063 23.3
2019-Sep-16 20:45 063 23.3
2019-Sep-16 20:40 063 23.3
2019-Sep-16 20:35 063 23.3
2019-Sep-16 20:25 063 23.9
2019-Sep-16 20:20 063 23.9
2019-Sep-16 20:15 063 23.9
2019-Sep-16 20:10 063 23.9
2019-Sep-16 20:05 063 23.9
2019-Sep-16 20:00 063 24.4
2019-Sep-16 19:55 063 24.4
2019-Sep-16 19:50 063 24.4
2019-Sep-16 19:45 063 24.4
2019-Sep-16 19:40 059 25.0
2019-Sep-16 19:35 059 25.0
2019-Sep-16 19:30 059 25.6
2019-Sep-16 19:25 059 25.6
2019-Sep-16 19:20 059 25.6
2019-Sep-16 19:15 059 25.0
2019-Sep-16 19:10 059 25.0
2019-Sep-16 19:05 059 25.0
2019-Sep-16 19:00 059 25.0
2019-Sep-16 18:55 059 25.0
2019-Sep-16 18:50 059 25.0
2019-Sep-16 18:45 059 24.4
2019-Sep-16 18:40 059 24.4
2019-Sep-16 18:35 059 24.4
2019-Sep-16 18:30 059 24.4
2019-Sep-16 18:25 059 24.4
2019-Sep-16 18:20 059 24.4
2019-Sep-16 18:15 059 24.4
2019-Sep-16 18:10 059 24.4
2019-Sep-16 18:05 059 24.4
2019-Sep-16 18:00 059 25.0
2019-Sep-16 17:50 059 25.0
2019-Sep-16 17:45 059 25.0
2019-Sep-16 17:40 059 25.0
2019-Sep-16 17:35 059 25.0
2019-Sep-16 17:30 059 24.4
2019-Sep-16 17:25 059 24.4
2019-Sep-16 17:15 059 23.9
2019-Sep-16 17:10 059 23.9
2019-Sep-16 17:05 059 23.9
2019-Sep-16 17:00 059 23.9
2019-Sep-16 16:55 059 23.9
2019-Sep-16 16:50 059 23.9
2019-Sep-16 16:45 059 24.4
2019-Sep-16 16:40 059 24.4
2019-Sep-16 16:35 113 24.4
2019-Sep-16 16:25 159 24.4
2019-Sep-16 16:20 159 24.4
2019-Sep-16 16:15 159 24.4
2019-Sep-16 16:10 159 0 gusting 4 24.4
2019-Sep-16 16:05 159 2 gusting 4 24.4
2019-Sep-16 16:00 157 1 gusting 5 24.4
2019-Sep-16 15:55 157 0 gusting 5 25.0
2019-Sep-16 15:50 157 25.0
2019-Sep-16 15:45 157 24.4
2019-Sep-16 15:40 157 1 gusting 5 24.4
2019-Sep-16 15:35 083 25.0
2019-Sep-16 15:30 133 0 gusting 4 25.0
2019-Sep-16 15:25 103 0 gusting 4 25.0
2019-Sep-16 15:20 072 25.0
2019-Sep-16 15:15 129 2 gusting 6 25.0
2019-Sep-16 15:10 135 3 gusting 6 25.0
2019-Sep-16 15:06 155 0 gusting 5 25.0
2019-Sep-16 15:00 051 2 gusting 5 25.0
2019-Sep-16 14:55 069 0 gusting 3 25.0
2019-Sep-16 14:50 038 25.0
2019-Sep-16 14:45 095 25.0
2019-Sep-16 14:40 113 25.0
2019-Sep-16 14:35 157 2 gusting 4 25.0
2019-Sep-16 14:30 069 0 gusting 6 25.0
2019-Sep-16 14:25 062 1 gusting 6 25.6
2019-Sep-16 14:20 060 0 gusting 4 25.6
2019-Sep-16 14:15 169 25.6
2019-Sep-16 14:10 065 0 gusting 4 25.0
2019-Sep-16 14:05 053 25.0
2019-Sep-16 14:00 066 25.0
2019-Sep-16 13:55 072 25.6
2019-Sep-16 13:50 050 25.0
2019-Sep-16 13:45 059 25.0
2019-Sep-16 13:40 126 25.0
2019-Sep-16 13:35 088 25.0
2019-Sep-16 13:30 110 25.0
2019-Sep-16 13:25 071 0 gusting 5 25.0
2019-Sep-16 13:20 057 25.0
2019-Sep-16 13:15 166 0 gusting 6 25.0
2019-Sep-16 13:10 150 2 gusting 6 25.0
2019-Sep-16 13:05 138 1 gusting 6 25.6
2019-Sep-16 13:00 059 1 gusting 5 25.0
2019-Sep-16 12:55 146 25.0
2019-Sep-16 12:50 086 0 gusting 6 25.0
2019-Sep-16 12:45 050 0 gusting 4 24.4
2019-Sep-16 12:40 059 0 gusting 4 24.4
2019-Sep-16 12:35 140 24.4
2019-Sep-16 12:25 055 0 gusting 4 24.4
2019-Sep-16 12:20 049 0 gusting 4 24.4
2019-Sep-16 12:15 046 24.4
2019-Sep-16 12:10 135 5 gusting 6 24.4
2019-Sep-16 12:05 148 24.4
2019-Sep-16 12:00 155 1 gusting 6 24.4
2019-Sep-16 11:55 145 1 gusting 6 23.9
2019-Sep-16 11:50 090 2 gusting 6 23.9
2019-Sep-16 11:45 150 1 gusting 7 23.9
2019-Sep-16 11:40 130 2 gusting 7 23.9
2019-Sep-16 11:35 143 4 gusting 7 23.9
2019-Sep-16 11:30 149 5 gusting 7 23.9
2019-Sep-16 11:25 164 4 gusting 7 23.9
2019-Sep-16 11:15 132 4 gusting 8 24.4
2019-Sep-16 11:10 186 4 gusting 8 24.4
2019-Sep-16 11:05 156 6 gusting 8 24.4
2019-Sep-16 11:00 143 5 gusting 8 24.4
2019-Sep-16 10:55 121 5 gusting 9 24.4
2019-Sep-16 10:50 126 4 gusting 8 24.4
2019-Sep-16 10:45 105 5 gusting 9 24.4
2019-Sep-16 10:40 120 5 gusting 9 24.4
2019-Sep-16 10:35 112 5 gusting 8 24.4
2019-Sep-16 10:30 182 3 gusting 8 24.4
2019-Sep-16 10:25 149 5 gusting 8 24.4
2019-Sep-16 10:20 144 5 gusting 7 24.4
2019-Sep-16 10:15 146 3 gusting 8 24.4
2019-Sep-16 10:10 142 5 gusting 8 24.4
2019-Sep-16 10:05 125 4 gusting 9 24.4
2019-Sep-16 10:00 126 4 gusting 7 24.4
2019-Sep-16 09:55 123 5 gusting 7 24.4
2019-Sep-16 09:50 149 4 gusting 7 24.4
2019-Sep-16 09:45 144 4 gusting 7 24.4
2019-Sep-16 09:40 120 3 gusting 8 24.4
2019-Sep-16 09:35 142 4 gusting 8 24.4
2019-Sep-16 09:30 113 4 gusting 7 24.4
2019-Sep-16 09:25 128 5 gusting 7 24.4
2019-Sep-16 09:20 119 4 gusting 6 25.0
2019-Sep-16 09:15 140 1 gusting 6 25.0
2019-Sep-16 09:10 128 2 gusting 6 25.0
2019-Sep-16 09:05 153 0 gusting 5 25.0
2019-Sep-16 09:00 153 25.0
2019-Sep-16 08:55 153 25.0
2019-Sep-16 08:50 153 2 gusting 5 25.0
2019-Sep-16 08:45 130 1 gusting 5 25.0
2019-Sep-16 08:40 144 25.0
2019-Sep-16 08:35 072 25.0
2019-Sep-16 08:30 061 25.0
2019-Sep-16 08:25 122 24.4
2019-Sep-16 08:20 136 24.4
2019-Sep-16 08:15 056 24.4
2019-Sep-16 08:10 146 24.4
2019-Sep-16 08:05 148 0 gusting 3 24.4
2019-Sep-16 08:00 147 24.4
2019-Sep-16 07:55 128 0 gusting 3 24.4
2019-Sep-16 07:50 049 0 gusting 3 24.4
2019-Sep-16 07:45 044 24.4
2019-Sep-16 07:40 038 23.9
2019-Sep-16 07:35 329 23.9
2019-Sep-16 07:30 329 23.9
2019-Sep-16 07:25 329 23.3
2019-Sep-16 07:20 329 23.3
2019-Sep-16 07:15 329 0 gusting 3 23.3
2019-Sep-16 07:10 329 23.3
2019-Sep-16 07:05 329 0 gusting 3 23.3
2019-Sep-16 07:00 329 23.9
2019-Sep-16 06:55 329 23.3
2019-Sep-16 06:50 326 23.3
2019-Sep-16 06:45 323 22.8
2019-Sep-16 06:40 323 22.8
2019-Sep-16 06:35 323 0 gusting 4 22.8
2019-Sep-16 06:30 323 1 gusting 5 22.8
2019-Sep-16 06:25 323 3 gusting 5 22.8
2019-Sep-16 06:20 322 2 gusting 5 22.8
2019-Sep-16 06:15 321 2 gusting 5 22.8
2019-Sep-16 06:10 322 2 gusting 6 22.2
2019-Sep-16 06:05 322 2 gusting 6 22.2
2019-Sep-16 06:00 315 2 gusting 5 22.2
2019-Sep-16 05:55 317 3 gusting 6 22.2
2019-Sep-16 05:50 324 2 gusting 6 22.2
2019-Sep-16 05:45 292 3 gusting 6 22.2
2019-Sep-16 05:40 304 3 gusting 6 22.2
2019-Sep-16 05:35 295 3 gusting 6 22.2
2019-Sep-16 05:25 307 2 gusting 5 22.8
2019-Sep-16 05:20 305 3 gusting 5 22.8
2019-Sep-16 05:15 317 3 gusting 6 22.8
2019-Sep-16 05:10 311 2 gusting 6 22.2
2019-Sep-16 05:05 310 2 gusting 6 22.2
2019-Sep-16 05:00 309 2 gusting 5 22.2
2019-Sep-16 04:55 306 2 gusting 6 22.2
2019-Sep-16 04:50 301 2 gusting 5 22.2
2019-Sep-16 04:45 311 1 gusting 6 22.2
2019-Sep-16 04:40 302 2 gusting 6 22.2
2019-Sep-16 04:35 273 2 gusting 6 22.2
2019-Sep-16 04:30 329 1 gusting 6 22.2
2019-Sep-16 04:25 293 1 gusting 6 22.2
2019-Sep-16 04:20 284 0 gusting 6 22.2
2019-Sep-16 04:15 240 3 gusting 6 22.2
2019-Sep-16 04:10 302 3 gusting 6 22.2
2019-Sep-16 04:05 302 2 gusting 6 22.2
2019-Sep-16 04:00 292 3 gusting 6 22.2
2019-Sep-16 03:55 295 1 gusting 6 22.2
2019-Sep-16 03:50 279 3 gusting 6 22.2
2019-Sep-16 03:45 286 2 gusting 6 22.2
2019-Sep-16 03:40 302 2 gusting 5 22.2
2019-Sep-16 03:35 305 2 gusting 6 22.2
2019-Sep-16 03:30 275 2 gusting 6 22.2
2019-Sep-16 03:25 298 3 gusting 6 22.2
2019-Sep-16 03:20 292 3 gusting 6 22.2
2019-Sep-16 03:15 263 1 gusting 6 22.2
2019-Sep-16 03:10 274 2 gusting 6 22.2
2019-Sep-16 03:05 265 2 gusting 6 22.2
2019-Sep-16 03:00 266 1 gusting 6 22.2
2019-Sep-16 02:55 269 1 gusting 6 22.2
2019-Sep-16 02:50 271 2 gusting 6 22.2
2019-Sep-16 02:45 277 2 gusting 6 22.2
2019-Sep-16 02:40 265 1 gusting 6 22.2
2019-Sep-16 02:35 296 0 gusting 6 22.2
2019-Sep-16 02:30 321 1 gusting 6 22.2
2019-Sep-16 02:25 321 2 gusting 6 22.8
2019-Sep-16 02:15 274 1 gusting 6 22.8
2019-Sep-16 02:10 302 0 gusting 6 22.8
2019-Sep-16 02:05 328 0 gusting 4 22.8
2019-Sep-16 02:00 311 0 gusting 4 22.8
2019-Sep-16 01:55 281 0 gusting 4 22.8
2019-Sep-16 01:50 291 22.8
2019-Sep-16 01:45 279 22.8
2019-Sep-16 01:40 331 0 gusting 6 22.8
2019-Sep-16 01:35 277 22.8
2019-Sep-16 01:30 262 22.8
2019-Sep-16 01:25 298 3 gusting 6 22.8
2019-Sep-16 01:20 332 0 gusting 4 22.8
2019-Sep-16 01:15 289 1 gusting 5 22.8
2019-Sep-16 01:10 299 0 gusting 5 22.8
2019-Sep-16 01:05 294 22.8
2019-Sep-16 01:00 295 1 gusting 6 22.8
2019-Sep-16 00:55 286 1 gusting 5 22.8
2019-Sep-16 00:50 290 0 gusting 3 22.8
2019-Sep-16 00:45 284 22.8
2019-Sep-16 00:40 309 1 gusting 4 22.8
2019-Sep-16 00:35 298 0 gusting 3 22.8
2019-Sep-16 00:30 300 0 gusting 3 22.8
2019-Sep-16 00:25 305 0 gusting 4 22.8
2019-Sep-16 00:20 302 0 gusting 3 22.8
2019-Sep-16 00:15 313 23.3
2019-Sep-16 00:10 279 0 gusting 4 23.3
2019-Sep-16 00:05 284 23.3
2019-Sep-16 00:00 294 0 gusting 4 23.3
2019-Sep-15 23:55 292 0 gusting 4 23.3
2019-Sep-15 23:45 313 23.3
2019-Sep-15 23:40 321 23.3
2019-Sep-15 23:35 321 23.3
2019-Sep-15 23:30 333 23.3
2019-Sep-15 23:25 296 23.9
2019-Sep-15 23:20 296 23.9
2019-Sep-15 23:15 296 23.9
2019-Sep-15 23:10 295 23.9
2019-Sep-15 23:05 296 0 gusting 2 23.9
2019-Sep-15 23:00 300 23.9
2019-Sep-15 22:55 300 23.9
2019-Sep-15 22:50 300 0 gusting 4 23.9
2019-Sep-15 22:45 296 23.9
2019-Sep-15 22:40 296 23.9
2019-Sep-15 22:35 296 23.9
2019-Sep-15 22:30 296 23.9
2019-Sep-15 22:25 293 23.9
2019-Sep-15 22:20 293 23.9
2019-Sep-15 22:15 293 23.9
2019-Sep-15 22:10 294 23.9
2019-Sep-15 22:05 292 23.9
2019-Sep-15 22:00 291 24.4
2019-Sep-15 21:55 291 23.9
2019-Sep-15 21:50 281 23.9
2019-Sep-15 21:45 281 23.9
2019-Sep-15 21:40 281 23.9
2019-Sep-15 21:35 281 23.9
2019-Sep-15 21:30 281 23.9
2019-Sep-15 21:20 053 23.9
2019-Sep-15 21:15 053 23.9
2019-Sep-15 21:10 053 23.9
2019-Sep-15 21:05 053 23.9
2019-Sep-15 21:00 053 23.9
2019-Sep-15 20:55 040 23.3
2019-Sep-15 20:50 040 23.3
2019-Sep-15 20:45 040 23.3
2019-Sep-15 20:40 057 23.9
2019-Sep-15 20:35 057 23.9
2019-Sep-15 20:30 050 23.9
2019-Sep-15 20:25 060 23.9
2019-Sep-15 20:20 046 23.9
2019-Sep-15 20:15 044 1 gusting 6 23.3
2019-Sep-15 20:10 042 23.3
2019-Sep-15 20:05 061 0 gusting 4 23.3
2019-Sep-15 20:00 051 23.3
2019-Sep-15 19:55 105 23.3
2019-Sep-15 19:50 089 0 gusting 6 23.3
2019-Sep-15 19:45 040 23.3
2019-Sep-15 19:40 052 23.3
2019-Sep-15 19:35 049 23.3
2019-Sep-15 19:30 070 0 gusting 6 23.3
2019-Sep-15 19:20 084 0 gusting 5 22.8
2019-Sep-15 19:15 067 23.3
2019-Sep-15 19:10 071 22.8
2019-Sep-15 19:05 036 1 gusting 6 23.3
2019-Sep-15 19:00 062 22.8
2019-Sep-15 18:55 054 0 gusting 7 22.8
2019-Sep-15 18:50 079 3 gusting 8 23.3
2019-Sep-15 18:45 082 1 gusting 6 23.3
2019-Sep-15 18:40 088 1 gusting 6 23.3
2019-Sep-15 18:35 137 23.3
2019-Sep-15 18:30 063 23.3
2019-Sep-15 18:25 085 2 gusting 6 23.3
2019-Sep-15 18:20 084 1 gusting 7 23.3
2019-Sep-15 18:15 069 23.3
2019-Sep-15 18:10 074 1 gusting 7 23.9
2019-Sep-15 18:05 059 1 gusting 7 23.9
2019-Sep-15 18:00 176 0 gusting 5 23.9
2019-Sep-15 17:55 076 0 gusting 6 23.9
2019-Sep-15 17:50 171 0 gusting 9 23.9
2019-Sep-15 17:45 120 2 gusting 9 23.9
2019-Sep-15 17:40 090 1 gusting 6 23.9
2019-Sep-15 17:35 098 3 gusting 6 23.9
2019-Sep-15 17:30 123 0 gusting 4 23.9
2019-Sep-15 17:25 060 0 gusting 6 24.4
2019-Sep-15 17:20 052 2 gusting 6 23.9
2019-Sep-15 17:15 074 0 gusting 6 24.4
2019-Sep-15 17:10 155 24.4
2019-Sep-15 17:05 088 0 gusting 6 24.4
2019-Sep-15 17:00 169 1 gusting 6 24.4
2019-Sep-15 16:55 144 1 gusting 7 24.4
2019-Sep-15 16:50 167 1 gusting 7 24.4
2019-Sep-15 16:45 141 1 gusting 5 24.4
2019-Sep-15 16:40 161 1 gusting 5 24.4
2019-Sep-15 16:35 131 24.4
2019-Sep-15 16:30 031 0 gusting 5 24.4
2019-Sep-15 16:25 074 24.4
2019-Sep-15 16:20 096 0 gusting 6 24.4
2019-Sep-15 16:15 163 4 gusting 7 24.4
2019-Sep-15 16:10 157 2 gusting 7 24.4
2019-Sep-15 16:05 173 3 gusting 7 24.4
2019-Sep-15 16:00 132 1 gusting 6 25.0
2019-Sep-15 15:55 108 25.0
2019-Sep-15 15:50 163 0 gusting 7 24.4
2019-Sep-15 15:45 158 4 gusting 9 24.4
2019-Sep-15 15:40 105 6 gusting 9 24.4
2019-Sep-15 15:35 160 5 gusting 9 24.4
2019-Sep-15 15:25 155 5 gusting 9 25.0
2019-Sep-15 15:20 136 3 gusting 8 25.0
2019-Sep-15 15:15 150 2 gusting 9 25.0
2019-Sep-15 15:10 134 5 gusting 9 25.0
2019-Sep-15 15:05 135 3 gusting 12 25.0
2019-Sep-15 15:00 127 6 gusting 12 25.0
2019-Sep-15 14:55 115 6 gusting 10 25.0
2019-Sep-15 14:50 132 6 gusting 11 25.6
2019-Sep-15 14:45 125 6 gusting 11 25.6
2019-Sep-15 14:40 142 3 gusting 8 25.6
2019-Sep-15 14:35 146 3 gusting 6 25.6
2019-Sep-15 14:30 121 1 gusting 9 25.6
2019-Sep-15 14:25 107 4 gusting 9 25.6
2019-Sep-15 14:20 117 5 gusting 10 25.6
2019-Sep-15 14:15 118 5 gusting 9 25.6
2019-Sep-15 14:10 143 4 gusting 9 25.6
2019-Sep-15 14:05 132 3 gusting 7 26.1
2019-Sep-15 14:00 173 0 gusting 4 26.7
2019-Sep-15 13:50 161 26.7
2019-Sep-15 13:45 064 26.7
2019-Sep-15 13:40 145 26.1
2019-Sep-15 13:35 068 0 gusting 6 26.1
2019-Sep-15 13:30 068 0 gusting 6 26.1
2019-Sep-15 13:25 070 26.1
2019-Sep-15 13:20 156 25.6
2019-Sep-15 13:15 140 5 gusting 12 25.0
2019-Sep-15 13:10 133 6 gusting 11 25.6
2019-Sep-15 13:05 092 6 gusting 11 25.6
2019-Sep-15 13:00 134 6 gusting 11 25.6
2019-Sep-15 12:55 130 6 gusting 11 25.6
2019-Sep-15 12:50 132 7 gusting 11 25.6
2019-Sep-15 12:45 124 6 gusting 9 25.6
2019-Sep-15 12:40 112 5 gusting 9 25.6
2019-Sep-15 12:35 117 5 gusting 11 25.6
2019-Sep-15 12:30 129 5 gusting 11 25.6
2019-Sep-15 12:25 126 5 gusting 11 25.6
2019-Sep-15 12:20 129 6 gusting 11 25.6
2019-Sep-15 12:15 150 6 gusting 10 25.6
2019-Sep-15 12:10 146 6 gusting 11 25.6
2019-Sep-15 12:05 134 6 gusting 13 25.6
2019-Sep-15 12:00 144 6 gusting 9 26.1
2019-Sep-15 11:55 137 6 gusting 13 25.6
2019-Sep-15 11:50 147 7 gusting 11 25.6
2019-Sep-15 11:45 138 6 gusting 14 25.6
2019-Sep-15 11:40 117 7 gusting 14 25.6
2019-Sep-15 11:35 144 6 gusting 12 25.6
2019-Sep-15 11:30 100 7 gusting 12 25.6
2019-Sep-15 11:25 156 7 gusting 11 25.0
2019-Sep-15 11:20 188 6 gusting 12 25.0
2019-Sep-15 11:15 128 6 gusting 12 25.0
2019-Sep-15 11:05 132 6 gusting 12 25.0
2019-Sep-15 11:00 141 6 gusting 12 25.0
2019-Sep-15 10:50 142 7 gusting 12 25.0
2019-Sep-15 10:45 126 6 gusting 12 25.0
2019-Sep-15 10:40 126 6 gusting 12 25.0
2019-Sep-15 10:35 121 3 gusting 9 25.6
2019-Sep-15 10:30 162 2 gusting 7 25.6
2019-Sep-15 10:25 141 25.6
2019-Sep-15 10:20 130 25.6
2019-Sep-15 10:15 175 25.6
2019-Sep-15 10:10 189 25.6
2019-Sep-15 10:05 072 26.1
2019-Sep-15 10:00 103 0 gusting 4 25.6
2019-Sep-15 09:55 109 25.6
2019-Sep-15 09:50 162 25.6
2019-Sep-15 09:45 124 0 gusting 6 25.6
2019-Sep-15 09:40 159 1 gusting 5 25.6
2019-Sep-15 09:35 165 0 gusting 4 25.6
2019-Sep-15 09:30 065 0 gusting 6 25.6
2019-Sep-15 09:25 088 0 gusting 6 25.0
2019-Sep-15 09:20 056 0 gusting 7 25.0
2019-Sep-15 09:15 074 0 gusting 7 25.0
2019-Sep-15 09:10 094 25.0
2019-Sep-15 09:05 177 1 gusting 10 25.0
2019-Sep-15 09:00 156 4 gusting 11 25.0
2019-Sep-15 08:55 196 4 gusting 11 24.4
2019-Sep-15 08:50 121 4 gusting 12 24.4
2019-Sep-15 08:45 162 4 gusting 11 25.0
2019-Sep-15 08:40 142 5 gusting 13 25.0
2019-Sep-15 08:35 134 6 gusting 13 25.0
2019-Sep-15 08:30 093 2 gusting 8 25.0
2019-Sep-15 08:25 103 0 gusting 8 24.4
2019-Sep-15 08:20 164 1 gusting 10 24.4
2019-Sep-15 08:15 178 1 gusting 10 24.4
2019-Sep-15 08:10 182 4 gusting 11 24.4
2019-Sep-15 08:05 128 0 gusting 6 24.4
2019-Sep-15 08:00 067 0 gusting 6 24.4
2019-Sep-15 07:55 077 0 gusting 6 23.9
2019-Sep-15 07:50 065 0 gusting 6 23.9
2019-Sep-15 07:45 076 23.9
2019-Sep-15 07:40 066 0 gusting 6 23.9
2019-Sep-15 07:35 060 0 gusting 7 23.9
2019-Sep-15 07:30 069 23.9
2019-Sep-15 07:25 079 23.9
2019-Sep-15 07:20 143 2 gusting 11 23.3
2019-Sep-15 07:15 119 4 gusting 11 23.3
2019-Sep-15 07:10 140 4 gusting 9 23.3
2019-Sep-15 07:05 169 23.3
2019-Sep-15 07:00 064 0 gusting 4 22.8
2019-Sep-15 06:55 115 22.8
2019-Sep-15 06:50 057 1 gusting 5 22.8
2019-Sep-15 06:45 053 22.8
2019-Sep-15 06:40 052 22.8
2019-Sep-15 06:35 064 22.8
2019-Sep-15 06:30 051 2 gusting 7 22.8
2019-Sep-15 06:25 057 0 gusting 5 22.8
2019-Sep-15 06:20 061 0 gusting 6 22.8
2019-Sep-15 06:15 073 0 gusting 6 22.8
2019-Sep-15 06:10 060 1 gusting 5 22.8
2019-Sep-15 06:05 075 0 gusting 6 22.8
2019-Sep-15 06:00 012 0 gusting 4 22.8
2019-Sep-15 05:55 036 22.8
2019-Sep-15 05:50 032 0 gusting 6 22.8
2019-Sep-15 05:45 061 3 gusting 6 22.8
2019-Sep-15 05:40 044 0 gusting 6 22.8
2019-Sep-15 05:35 046 22.8
2019-Sep-15 05:30 040 22.8
2019-Sep-15 05:25 323 22.8
2019-Sep-15 05:20 323 22.8
2019-Sep-15 05:15 323 22.8
2019-Sep-15 05:10 323 22.8
2019-Sep-15 05:05 323 22.8
2019-Sep-15 05:00 323 22.8
2019-Sep-15 04:55 323 22.8
2019-Sep-15 04:50 323 22.8
2019-Sep-15 04:45 323 0 gusting 2 22.8
2019-Sep-15 04:40 320 22.8
2019-Sep-15 04:35 320 22.8
2019-Sep-15 04:30 333 22.8
2019-Sep-15 04:25 298 22.8
2019-Sep-15 04:20 300 1 gusting 5 22.8
2019-Sep-15 04:15 294 0 gusting 5 22.8
2019-Sep-15 04:10 301 22.8
2019-Sep-15 04:05 295 22.8
2019-Sep-15 03:55 300 0 gusting 5 22.8
2019-Sep-15 03:50 291 0 gusting 5 22.8
2019-Sep-15 03:45 296 0 gusting 5 22.8
2019-Sep-15 03:40 298 22.8
2019-Sep-15 03:35 289 0 gusting 6 22.8
2019-Sep-15 03:30 287 22.8
2019-Sep-15 03:25 265 0 gusting 5 22.8
2019-Sep-15 03:20 312 0 gusting 5 22.8
2019-Sep-15 03:15 310 22.8
2019-Sep-15 03:10 293 22.8
2019-Sep-15 03:05 325 0 gusting 4 22.8
2019-Sep-15 03:00 309 22.8
2019-Sep-15 02:55 309 22.8
2019-Sep-15 02:50 306 22.8
2019-Sep-15 02:45 306 22.8
2019-Sep-15 02:40 306 22.8
2019-Sep-15 02:35 311 22.8
2019-Sep-15 02:30 278 22.8
2019-Sep-15 02:25 277 22.8
2019-Sep-15 02:20 319 0 gusting 6 22.8
2019-Sep-15 02:15 275 0 gusting 7 23.3
2019-Sep-15 02:10 223 1 gusting 7 23.3
2019-Sep-15 02:05 300 0 gusting 6 23.3
2019-Sep-15 02:00 299 23.9
2019-Sep-15 01:55 355 23.9
2019-Sep-15 01:50 276 23.9
2019-Sep-15 01:45 277 23.9
2019-Sep-15 01:40 321 23.9
2019-Sep-15 01:35 053 0 gusting 8 23.9
2019-Sep-15 01:25 077 2 gusting 6 23.3
2019-Sep-15 01:20 038 0 gusting 6 23.3
2019-Sep-15 01:15 079 1 gusting 6 23.3
2019-Sep-15 01:10 080 2 gusting 6 23.3
2019-Sep-15 01:05 042 2 gusting 7 23.3
2019-Sep-15 01:00 110 2 gusting 6 23.9
2019-Sep-15 00:55 071 0 gusting 7 23.9
2019-Sep-15 00:50 158 1 gusting 7 23.9
2019-Sep-15 00:45 175 23.9
2019-Sep-15 00:40 139 1 gusting 7 23.9
2019-Sep-15 00:35 154 2 gusting 6 23.9
2019-Sep-15 00:30 184 2 gusting 9 23.9
2019-Sep-15 00:25 150 5 gusting 13 23.9
2019-Sep-15 00:20 122 6 gusting 15 23.9
2019-Sep-15 00:15 138 6 gusting 15 23.9
2019-Sep-15 00:10 117 8 gusting 15 23.9
2019-Sep-15 00:05 119 7 gusting 13 23.9
2019-Sep-15 00:00 167 7 gusting 13 23.9
2019-Sep-14 23:55 117 6 gusting 13 23.9
2019-Sep-14 23:50 179 5 gusting 10 23.9
2019-Sep-14 23:45 146 5 gusting 12 23.9
2019-Sep-14 23:40 119 4 gusting 12 23.9
2019-Sep-14 23:35 117 6 gusting 12 23.9
2019-Sep-14 23:30 135 6 gusting 11 23.9
2019-Sep-14 23:25 130 7 gusting 12 23.9
2019-Sep-14 23:15 165 6 gusting 12 23.9
2019-Sep-14 23:10 146 6 gusting 12 23.9
2019-Sep-14 23:05 153 6 gusting 10 23.9
2019-Sep-14 23:00 146 4 gusting 8 23.9
2019-Sep-14 22:55 146 5 gusting 8 23.9
2019-Sep-14 22:50 161 3 gusting 6 23.9
2019-Sep-14 22:45 169 1 gusting 5 23.9
2019-Sep-14 22:40 144 1 gusting 5 23.3
2019-Sep-14 22:35 186 0 gusting 4 23.3
2019-Sep-14 22:30 085 0 gusting 6 23.3
2019-Sep-14 22:25 071 3 gusting 9 23.3
2019-Sep-14 22:20 039 2 gusting 9 23.3
2019-Sep-14 22:15 063 3 gusting 10 23.3
2019-Sep-14 22:10 081 3 gusting 10 23.3
2019-Sep-14 22:05 053 0 gusting 7 23.3
2019-Sep-14 22:00 019 3 gusting 7 23.3